[[{"header":{"parameterUnit":"m.s-1","parameterCategory":1,"la1":30.2992,"la2":30.254,"lo1":-89.0895,"lo2":-89.0443,"dy":0.0025,"dx":0.0025,"nx":19,"ny":19,"refTime":"2026-05-24T21:00:00:Z","depth":0,"parameterNumber":2,"parameterNumberName":"U-component_of_WINDS"},"data":[0,0,0,-2.691,-2.6914,-2.711,-2.711,-2.7347,-2.7349,0,0,0,0,0,0,0,0,0,0,0,-2.6843,-2.6844,-2.691,-2.6915,-2.7109,-2.711,-2.7347,-2.7349,0,0,0,0,0,0,0,0,0,0,0,-2.6842,-2.6844,-2.6845,-2.6915,-2.7109,-2.7111,-2.7346,-2.7204,0,0,0,0,0,0,0,0,0,0,-2.7017,-2.6945,-2.6843,-2.6845,-2.6916,-2.7109,-2.7111,-2.7198,-2.7213,-2.7253,0,-2.7284,0,-2.732,-2.7364,-2.7365,0,0,0,-2.6922,-2.6932,-2.6993,-2.6845,-2.6918,-2.7109,-2.7024,-2.7206,-2.7224,-2.7273,-2.7287,-2.7297,-2.7324,-2.7366,-2.7367,-2.7566,-2.7566,0,0,-2.6911,-2.6873,-2.6981,-2.7004,-2.6971,-2.7017,-2.703,-2.7217,-2.7231,-2.7288,-2.7302,-2.7328,-2.7367,-2.7369,-2.7565,-2.7566,0,0,0,-2.6875,-2.6865,-2.6922,-2.6994,-2.703,-2.7023,-2.7037,-2.7222,-2.7244,-2.7305,-2.7331,-2.7368,-2.7371,-2.7565,-2.7566,-2.7554,0,0,0,-2.6869,-2.6844,-2.6917,-2.6895,-2.7026,-2.7128,-2.7038,-2.7231,-2.7254,-2.733,-2.7368,-2.7373,-2.7564,-2.7565,-2.7553,-2.7555,0,0,0,-2.6833,-2.684,-2.6865,-2.6893,-2.6975,-2.7126,-2.7159,-2.7237,-2.7269,-2.7365,-2.7374,-2.7564,-2.7565,-2.7552,-2.7554,-2.7595,0,0,0,-2.6784,-2.6853,-2.6864,-2.6951,-2.6973,-2.7117,-2.7158,-2.7268,-2.7349,-2.737,-2.7564,-2.7565,-2.7552,-2.7553,-2.7594,-2.7621,-2.7629,0,0,-2.685,-2.686,-2.6914,-2.6929,-2.7061,-2.7091,-2.7222,-2.7334,-2.738,-2.7502,-2.7507,-2.7554,-2.7554,-2.7595,-2.7692,-2.7698,0,0,0,-2.6922,-2.696,-2.7003,-2.7078,-2.7164,-2.7239,-2.7335,-2.7377,-2.7482,-2.7434,-2.7582,-2.7583,-2.7609,-2.7624,-2.7629,-2.7653,-2.7571,-2.7571,-2.7571,-2.6957,-2.7011,-2.7105,-2.7182,-2.7254,-2.7353,-2.7417,-2.7491,-2.7525,-2.7559,-2.7594,-2.7647,-2.7663,-2.7667,-2.7692,-2.7615,-2.7615,-2.7615,-2.7615,-2.7056,-2.7118,-2.7162,-2.7268,-2.7326,-2.7416,-2.7515,-2.7536,-2.763,-2.7624,-2.765,-2.7637,-2.7672,-2.7696,-2.7615,-2.7615,-2.7615,-2.7615,-2.7615,-2.7084,-2.7123,-2.7172,-2.7286,-2.7369,-2.7447,-2.7534,-2.7584,-2.7632,-2.7658,-2.7701,-2.7701,-2.7706,-2.7675,-2.7675,-2.7675,-2.7676,-2.7676,-2.7676,-2.7092,-2.7148,-2.7214,-2.7312,-2.7367,-2.7446,-2.7547,-2.7604,-2.7679,-2.7709,-2.7709,-2.7739,-2.7666,-2.7645,-2.7679,-2.7678,-2.7678,-2.7678,-2.7677,-2.7169,-2.7159,-2.7261,-2.7316,-2.7436,-2.7515,-2.7579,-2.7689,-2.7744,-2.7785,-2.7812,-2.7749,-2.7763,-2.776,-2.7742,-2.78,-2.78,-2.78,-2.78,-2.719,-2.7203,-2.7318,-2.7403,-2.7492,-2.756,-2.7676,-2.7756,-2.7838,-2.7875,-2.7875,-2.7858,-2.7852,-2.787,-2.7864,-2.7848,-2.7931,-2.7932,-2.7932,-2.724,-2.7263,-2.735,-2.7429,-2.7527,-2.761,-2.7721,-2.7818,-2.791,-2.7938,-2.7906,-2.79,-2.7873,-2.7861,-2.7885,-2.7875,-2.7848,0,0]},{"header":{"parameterUnit":"m.s-1","parameterCategory":1,"la1":30.2992,"la2":30.254,"lo1":-89.0895,"lo2":-89.0443,"dy":0.0025,"dx":0.0025,"nx":19,"ny":19,"refTime":"2026-05-24T21:00:00:Z","depth":0,"parameterNumber":3,"parameterNumberName":"V-component_of_WINDS"},"data":[0,0,0,5.4303,5.4305,5.4392,5.4392,5.4525,5.4527,0,0,0,0,0,0,0,0,0,0,0,5.4292,5.4294,5.4303,5.4305,5.4392,5.4392,5.4525,5.4527,0,0,0,0,0,0,0,0,0,0,0,5.4291,5.4293,5.4295,5.4306,5.4392,5.4392,5.4525,5.4451,0,0,0,0,0,0,0,0,0,0,5.4363,5.4368,5.4293,5.4295,5.4306,5.4392,5.4392,5.4447,5.4456,5.4496,0,5.4537,0,5.4534,5.4537,5.4538,0,0,0,5.4294,5.4361,5.4371,5.4295,5.4307,5.4392,5.435,5.4452,5.4461,5.4507,5.4539,5.4543,5.4536,5.4538,5.4539,5.4811,5.4813,0,0,5.4289,5.4316,5.4364,5.4378,5.4368,5.4347,5.4352,5.4457,5.4493,5.4539,5.4546,5.4539,5.4539,5.454,5.4809,5.4812,0,0,0,5.4283,5.4313,5.4319,5.4373,5.4387,5.435,5.4356,5.4488,5.4488,5.4547,5.454,5.454,5.4542,5.4807,5.481,5.4925,0,0,0,5.4279,5.4309,5.4318,5.4335,5.4386,5.4439,5.4385,5.4481,5.4492,5.454,5.454,5.4544,5.4805,5.4809,5.4917,5.4974,0,0,0,5.4281,5.4309,5.4327,5.4337,5.4375,5.4437,5.4442,5.4482,5.4488,5.4538,5.4544,5.4804,5.4808,5.4911,5.4963,5.5052,0,0,0,5.4291,5.4429,5.433,5.4481,5.4375,5.4508,5.4441,5.4539,5.4596,5.4541,5.4806,5.481,5.4909,5.4957,5.5045,5.5131,5.517,0,0,5.448,5.4453,5.454,5.4453,5.4611,5.4492,5.4666,5.4692,5.4673,5.4766,5.4772,5.492,5.4963,5.5051,5.538,5.5411,0,0,0,5.4609,5.4671,5.4707,5.4762,5.4786,5.4809,5.4806,5.4815,5.4892,5.4726,5.4976,5.5001,5.5051,5.5091,5.5117,5.5158,5.483,5.4829,5.4829,5.4916,5.4882,5.5022,5.4998,5.5052,5.5046,5.5086,5.5097,5.5048,5.5108,5.5135,5.5339,5.5386,5.5406,5.5449,5.5178,5.5179,5.5179,5.518,5.5189,5.5271,5.5201,5.5312,5.5275,5.5367,5.5365,5.5327,5.5406,5.5316,5.5359,5.5262,5.5441,5.5476,5.5188,5.5187,5.5185,5.5185,5.5184,5.5385,5.5418,5.5427,5.55,5.5561,5.5531,5.561,5.5573,5.554,5.5582,5.5605,5.5603,5.5595,5.5596,5.5597,5.5597,5.5598,5.5598,5.5599,5.5585,5.559,5.5662,5.5696,5.5724,5.5758,5.5751,5.5778,5.5798,5.5765,5.5765,5.5709,5.5465,5.5404,5.561,5.5608,5.5606,5.5605,5.5605,5.5872,5.5801,5.5911,5.594,5.5975,5.6036,5.5988,5.6045,5.6062,5.6101,5.6035,5.5862,5.5831,5.581,5.5758,5.6044,5.6044,5.6044,5.6044,5.6037,5.6018,5.612,5.6168,5.621,5.6177,5.63,5.6295,5.6279,5.6287,5.624,5.6169,5.6149,5.613,5.6102,5.6054,5.6408,5.6408,5.6408,5.6211,5.6193,5.6306,5.6289,5.6313,5.6334,5.6447,5.6503,5.647,5.6422,5.6291,5.6276,5.6161,5.6126,5.6075,5.6032,5.5943,0,0]}]]